Daggett-Barstow, CA

3:09 PM PDT on May 22, 2018 (GMT -0700)
Barstow-Daggett

Weather History for KDAG - March, 2014

Change the Weather History Date:

Wednesday, March 19, 2014

  Actual Average Record
Temperature  
Mean Temperature 54 °F 59 °F  
Max Temperature 72 °F 72 °F 89 °F (1997)
Min Temperature 36 °F 46 °F 35 °F (1951)
Degree Days  
Heating Degree Days 11    
Cooling Degree Days 0    
Growing Degree Days 4 (Base 50)    
Moisture  
Dew Point 9 °F    
Average Humidity 19    
Maximum Humidity 39    
Minimum Humidity 8    
Precipitation  
Precipitation 0.00 in 0.01 in 0.34 in (1979)
Month to date precipitation 0.37  
Year to date precipitation 1.63  
Sea Level Pressure  
Sea Level Pressure 30.06 in    
Wind  
Wind Speed 4 mph (NE)    
Max Wind Speed 9 mph    
Max Gust Speed -    
Visibility 10 miles    
Events      
T = Trace of Precipitation, MM = Missing Value Source: NWS Daily Summary

Daily Weather History Graph

Daily Weather History Graph

Search for Another Location

Airport or City:

Astronomy

Mar. 19, 2014 Rise Set
Actual Time 6:52 AM PDT 6:58 PM PDT
Civil Twilight 6:26 AM PDT 7:23 PM PDT
Nautical Twilight 5:57 AM PDT 7:52 PM PDT
Astronomical Twilight 5:27 AM PDT 8:22 PM PDT
Moon 10:12 PM PDT (3/19) 8:28 AM PDT (3/19)
Length of Visible Light 12h 56m
Length of Day
12h 06m
Waning Gibbous, 90% of the Moon is Illuminated
Mar 19
Waning Gibbous
Mar 23
Last Quarter
Mar 30
New
Apr 7
First Quarter
Apr 15
Full

Hourly Weather History & Observations

Time (PDT) Temp. Windchill Dew Point Humidity Pressure Visibility Wind Dir Wind Speed Gust Speed Precip Events Conditions
12:50 AM 45.0 °F 43.5 °F 12.9 °F 27% 30.00 in 10.0 mi NW 3.5 mph - N/A   Clear
1:50 AM 43.0 °F - 10.9 °F 27% 30.02 in 10.0 mi Calm Calm - N/A   Clear
2:50 AM 43.0 °F 40.3 °F 8.1 °F 24% 30.02 in 10.0 mi West 4.6 mph - N/A   Clear
3:50 AM 39.9 °F - 10.9 °F 31% 30.03 in 10.0 mi Calm Calm - N/A   Clear
4:50 AM 39.9 °F - 14.0 °F 35% 30.05 in 10.0 mi Calm Calm - N/A   Clear
5:50 AM 37.9 °F 35.5 °F 10.9 °F 33% 30.07 in 10.0 mi West 3.5 mph - N/A   Clear
6:50 AM 36.0 °F 33.3 °F 12.9 °F 39% 30.10 in 10.0 mi West 3.5 mph - N/A   Clear
7:50 AM 42.1 °F 39.2 °F 10.0 °F 27% 30.12 in 10.0 mi West 4.6 mph - N/A   Clear
8:50 AM 51.1 °F - 12.0 °F 21% 30.13 in 10.0 mi Calm Calm - N/A   Clear
9:50 AM 57.0 °F - 12.9 °F 18% 30.13 in 10.0 mi East 4.6 mph - N/A   Clear
10:50 AM 62.1 °F - 10.0 °F 13% 30.13 in 10.0 mi East 9.2 mph - N/A   Clear
11:50 AM 64.0 °F - 9.0 °F 12% 30.12 in 10.0 mi East 9.2 mph - N/A   Clear
12:50 PM 66.9 °F - 7.0 °F 10% 30.10 in 10.0 mi ENE 9.2 mph - N/A   Clear
1:50 PM 69.1 °F - 7.0 °F 9% 30.07 in 10.0 mi ENE 8.1 mph - N/A   Clear
2:50 PM 70.0 °F - 6.1 °F 8% 30.05 in 10.0 mi ENE 5.8 mph - N/A   Clear
3:50 PM 70.0 °F - 6.1 °F 8% 30.04 in 10.0 mi ENE 6.9 mph - N/A   Clear
4:50 PM 72.0 °F - 6.1 °F 8% 30.03 in 10.0 mi ENE 6.9 mph - N/A   Clear
5:50 PM 70.0 °F - 7.0 °F 9% 30.03 in 10.0 mi ENE 5.8 mph - N/A   Clear
6:50 PM 64.9 °F - 10.9 °F 12% 30.04 in 10.0 mi East 5.8 mph - N/A   Clear
7:50 PM 62.1 °F - 6.1 °F 11% 30.03 in 10.0 mi South 3.5 mph - N/A   Clear
8:50 PM 60.1 °F - 5.0 °F 11% 30.04 in 10.0 mi Calm Calm - N/A   Clear
9:50 PM 54.0 °F - 8.1 °F 16% 30.04 in 10.0 mi Calm Calm - N/A   Clear
10:50 PM 51.1 °F - 8.1 °F 18% 30.05 in 10.0 mi West 5.8 mph - N/A   Clear
11:50 PM 48.0 °F - 12.9 °F 24% 30.05 in 10.0 mi West 5.8 mph - N/A   Clear